Location: Juzet
(42.9779°N, 0.7597°E)
Time: 01:39:21
(UTC+00:00)

Meteor 2-4 Rocket - Pass Details

Date: 14 July 2020
Orbit: 799 x 908 km, 81.2° (Epoch: 11 August)

Event Time Altitude Azimuth Distance (km) Brightness Sun altitude
Rises 01:57:26 0° 347° (NNW) 3,547 7.7 -20.2°
Reaches altitude 10° 01:59:56 10° 345° (NNW) 2,600 6.9 -20.0°
Maximum altitude 02:05:49 67° 264° (W) 976 3.8 -19.5°
Enters shadow 02:08:32 32° 192° (SSW) 1,479 4.4 -19.2°
